Volver al catálogo

STARLINK-3534

ActivoComunicacionesVLEO
NORAD 52120·PAYLOAD·🇺🇸 United States

Lanzado Mar 19, 2022 desde Cape Canaveral Space Force Station

Loading…

Próximos Pases (próximas 24 horas)

TLE

ActualizadoSource: CelesTrak SupGP

Época: Sep 15, 2026, 01:18 UTC

1 52120C 22029AJ  26258.05465278  .00003875  00000+0  11447-3 0  2585
2 52120  53.1584 292.9806 0001207  95.0624 318.0394 15.34388289    10

Sigue STARLINK-3534 en tiempo real con AllMySat

Download on the App Store